Location: Kergonan
(48.2337°N, 4.5518°W)
Time: 07:04:21
(UTC+00:00)

USA 32 - Pass Details

Date: 18 January 2020
Orbit: 777 x 783 km, 85.0° (Epoch: 29 January)

Event Time Altitude Azimuth Distance (km) Brightness Sun altitude
Rises 06:26:54 0° 352° (N) 3,273 7.0 -15.5°
Reaches altitude 10° 06:29:16 10° 350° (N) 2,341 6.3 -15.1°
Maximum altitude 06:34:30 70° 268° (W) 832 4.0 -14.3°
Drops below altitude 10° 06:39:41 10° 185° (S) 2,327 6.6 -13.4°
Sets 06:42:01 0° 183° (S) 3,251 7.4 -13.1°
